AAR546 LKPR-RKSI

Flight info

Callsign AAR546
Flight time N/A
Altitude 23000
Route VOZ DCT BODAL DCT BNO DCT PEPIK/N0481F370 DCT BUDOP DCT DINRO/N0484F390 N743 UDROS UM859 KARDE UN644 ROLIN DCT TAGAR DCT BT DCT BARAD M747 LUSAL N199 RASAM L88 METKA B476 TIMGA A480 OTBOR/K0898F390 N147 ELAHA Z621 ARBOL M610 RULAD/K0893S1190 A343 POSOT B215 FKG W188 LIKMI W270 DKO W69 HUR B339 LADIX/K0926S1010 W34 VAPGU W100 MUDOT/K0948S0890 W100 ORAVA W201 UNSEK A326 DONVO G597 AGAVO/N0499F270 Y644 REBIT REBIT1Y
Aircraft A359/H-SDE2E3GHIJ3J4J5LM1ORWXY/LB1D1

Departure

Time 2026-05-06 19:08
Airport Václav Havel Airport Prague (LKPR)

Arrival

Time N/A
Airport Incheon International Airport (RKSI)
Time Latitude Longitude Altitude Speed Heading
2026-05-06 17:56 50.10779 14.26579 1183 ft 0 kts 34°
2026-05-06 18:40 50.10778 14.26579 1183 ft 1 kts 34°
2026-05-06 18:40 50.10759 14.26558 1159 ft 4 kts 29°
2026-05-06 18:40 50.10736 14.26542 1183 ft 4 kts
2026-05-06 18:41 50.10720 14.26540 1183 ft 4 kts 323°
2026-05-06 18:41 50.10715 14.26545 1183 ft 0 kts 304°
2026-05-06 18:46 50.10731 14.26509 1181 ft 6 kts 304°
2026-05-06 18:46 50.10759 14.26445 1178 ft 8 kts 304°
2026-05-06 18:46 50.10795 14.26362 1178 ft 10 kts 304°
2026-05-06 18:46 50.10831 14.26259 1180 ft 11 kts 298°
2026-05-06 18:47 50.10872 14.26160 1176 ft 12 kts 304°
2026-05-06 18:47 50.10862 14.26066 1177 ft 8 kts 229°
2026-05-06 18:47 50.10813 14.26011 1178 ft 9 kts 213°
2026-05-06 18:47 50.10759 14.25953 1177 ft 9 kts 214°
2026-05-06 18:48 50.10701 14.25891 1177 ft 11 kts 214°
2026-05-06 18:48 50.10643 14.25829 1181 ft 9 kts 214°
2026-05-06 18:48 50.10609 14.25778 1188 ft 6 kts 242°
2026-05-06 18:48 50.10618 14.25696 1187 ft 11 kts 296°
2026-05-06 18:49 50.10660 14.25576 1176 ft 14 kts 298°
2026-05-06 18:49 50.10704 14.25452 1175 ft 6 kts 299°
2026-05-06 18:49 50.10717 14.25417 1176 ft 0 kts 299°
2026-05-06 18:52 50.10722 14.25402 1175 ft 4 kts 299°
2026-05-06 18:52 50.10747 14.25333 1174 ft 10 kts 299°
2026-05-06 18:52 50.10774 14.25259 1174 ft 0 kts 299°
2026-05-06 18:57 50.10774 14.25258 1174 ft 1 kts 299°
2026-05-06 18:57 50.10794 14.25199 1174 ft 9 kts 295°
2026-05-06 18:57 50.10808 14.25130 1175 ft 5 kts 283°
2026-05-06 18:58 50.10809 14.25121 1177 ft 0 kts 281°
2026-05-06 19:06 50.10809 14.25120 1179 ft 1 kts 281°
2026-05-06 19:06 50.10817 14.25044 1177 ft 11 kts 277°
2026-05-06 19:06 50.10822 14.24908 1177 ft 14 kts 269°
2026-05-06 19:06 50.10808 14.24745 1173 ft 15 kts 255°
2026-05-06 19:07 50.10752 14.24635 1172 ft 10 kts 174°
2026-05-06 19:07 50.10711 14.24715 1172 ft 14 kts 125°
2026-05-06 19:07 50.10539 14.25074 1176 ft 70 kts 127°
2026-05-06 19:07 50.10141 14.25900 1197 ft 119 kts 127°
2026-05-06 19:08 50.09551 14.27122 1224 ft 161 kts 127°
2026-05-06 19:08 50.08861 14.28515 1710 ft 158 kts 126°
2026-05-06 19:08 50.08202 14.29861 2284 ft 154 kts 124°
2026-05-06 19:08 50.07547 14.31237 2567 ft 165 kts 124°
2026-05-06 19:09 50.06831 14.32736 2766 ft 182 kts 125°
2026-05-06 19:09 50.06044 14.34372 2938 ft 200 kts 126°
2026-05-06 19:09 50.05155 14.36211 3138 ft 219 kts 126°
2026-05-06 19:09 50.04215 14.38146 3336 ft 238 kts 127°
2026-05-06 19:10 50.03171 14.40292 3568 ft 257 kts 127°
2026-05-06 19:10 50.02078 14.42539 4099 ft 263 kts 127°
2026-05-06 19:10 50.00970 14.44816 4720 ft 265 kts 128°
2026-05-06 19:10 49.99853 14.47111 5337 ft 268 kts 129°
2026-05-06 19:11 49.98654 14.49342 5971 ft 269 kts 139°
2026-05-06 19:11 49.97131 14.50998 6640 ft 267 kts 153°
2026-05-06 19:11 49.95492 14.52378 7253 ft 270 kts 155°
2026-05-06 19:11 49.93820 14.53752 7900 ft 273 kts 155°
2026-05-06 19:12 49.92134 14.55145 8564 ft 276 kts 155°
2026-05-06 19:12 49.90436 14.56556 9260 ft 279 kts 156°
2026-05-06 19:12 49.88719 14.57988 9892 ft 283 kts 156°
2026-05-06 19:12 49.86940 14.59466 10217 ft 299 kts 155°
2026-05-06 19:13 49.85052 14.61036 10470 ft 316 kts 155°
2026-05-06 19:13 49.83067 14.62692 10736 ft 333 kts 155°
2026-05-06 19:13 49.80978 14.64436 11005 ft 348 kts 155°
2026-05-06 19:13 49.78805 14.66250 11278 ft 362 kts 155°
2026-05-06 19:14 49.76559 14.68124 11650 ft 371 kts 155°
2026-05-06 19:14 49.74249 14.70051 12189 ft 376 kts 155°
2026-05-06 19:14 49.71920 14.71990 12754 ft 380 kts 155°
2026-05-06 19:14 49.69582 14.73939 13331 ft 384 kts 154°
2026-05-06 19:15 49.67253 14.75873 13888 ft 387 kts 155°
2026-05-06 19:15 49.64846 14.77866 14434 ft 389 kts 155°
2026-05-06 19:15 49.62450 14.79848 14964 ft 392 kts 155°
2026-05-06 19:15 49.60040 14.81841 15509 ft 394 kts 155°
2026-05-06 19:16 49.57611 14.83848 16071 ft 397 kts 155°
2026-05-06 19:16 49.55241 14.85956 16573 ft 402 kts 150°
2026-05-06 19:16 49.53095 14.88866 17124 ft 413 kts 135°
2026-05-06 19:16 49.51465 14.92487 17647 ft 421 kts 125°
2026-05-06 19:17 49.50042 14.96455 18124 ft 427 kts 122°
2026-05-06 19:17 49.48719 15.00562 18567 ft 431 kts 120°
2026-05-06 19:17 49.47423 15.04741 19044 ft 433 kts 120°
2026-05-06 19:17 49.46122 15.08934 19530 ft 436 kts 120°
2026-05-06 19:18 49.44795 15.13138 20023 ft 438 kts 121°
2026-05-06 19:18 49.43444 15.17338 20525 ft 440 kts 121°
2026-05-06 19:18 49.42067 15.21557 21027 ft 443 kts 122°
2026-05-06 19:18 49.40670 15.25794 21527 ft 446 kts 122°
2026-05-06 19:19 49.39261 15.30046 22022 ft 448 kts 122°
2026-05-06 19:19 49.37839 15.34325 22496 ft 452 kts 122°
2026-05-06 19:19 49.36405 15.38636 22727 ft 456 kts 122°
2026-05-06 19:19 49.34954 15.42988 22726 ft 461 kts 122°
2026-05-06 19:20 49.33493 15.47371 22726 ft 462 kts 122°
2026-05-06 19:20 49.32035 15.51746 22733 ft 462 kts 122°
2026-05-06 19:20 49.30574 15.56124 22726 ft 461 kts 122°
2026-05-06 19:20 49.29109 15.60504 22727 ft 461 kts 122°
2026-05-06 19:21 49.27645 15.64874 22733 ft 461 kts 122°
2026-05-06 19:21 49.26179 15.69241 22729 ft 461 kts 122°
2026-05-06 19:21 49.24709 15.73611 22736 ft 461 kts 122°
2026-05-06 19:21 49.23237 15.77979 22734 ft 462 kts 122°
2026-05-06 19:22 49.21765 15.82336 22741 ft 462 kts 122°
2026-05-06 19:22 49.20290 15.86698 22739 ft 462 kts 122°
2026-05-06 19:22 49.18812 15.91063 22741 ft 462 kts 122°
2026-05-06 19:22 49.17333 15.95420 22742 ft 462 kts 122°
2026-05-06 19:23 49.15851 15.99781 22750 ft 462 kts 122°
2026-05-06 19:23 49.14368 16.04136 22740 ft 462 kts 122°
2026-05-06 19:23 49.12886 16.08482 22745 ft 462 kts 122°
2026-05-06 19:23 49.11397 16.12837 22745 ft 462 kts 122°
2026-05-06 19:24 49.09910 16.17181 22746 ft 462 kts 122°
2026-05-06 19:24 49.08418 16.21532 22745 ft 463 kts 122°
2026-05-06 19:24 49.06923 16.25883 22741 ft 463 kts 122°
2026-05-06 19:24 49.05432 16.30219 22741 ft 463 kts 122°
2026-05-06 19:25 49.03936 16.34562 22744 ft 463 kts 122°
2026-05-06 19:25 49.02437 16.38905 22735 ft 463 kts 122°
2026-05-06 19:25 49.00937 16.43245 22739 ft 463 kts 122°
2026-05-06 19:25 48.99438 16.47573 22740 ft 463 kts 122°
2026-05-06 19:26 48.97934 16.51909 22744 ft 463 kts 122°
2026-05-06 19:26 48.96430 16.56238 22740 ft 463 kts 122°
2026-05-06 19:26 48.94926 16.60559 22744 ft 463 kts 122°
2026-05-06 19:26 48.93412 16.64884 22743 ft 462 kts 123°
2026-05-06 19:27 48.91772 16.69069 22894 ft 459 kts 126°
2026-05-06 19:27 48.90080 16.73181 23387 ft 459 kts 127°
2026-05-06 19:27 48.88362 16.77269 23837 ft 460 kts 127°
2026-05-06 19:27 48.86620 16.81364 24228 ft 463 kts 128°
2026-05-06 19:28 48.84860 16.85473 24615 ft 466 kts 128°
2026-05-06 19:28 48.83084 16.89611 24994 ft 469 kts 128°
2026-05-06 19:28 48.81297 16.93770 25368 ft 472 kts 128°
2026-05-06 19:28 48.79500 16.97954 25747 ft 475 kts 128°
2026-05-06 19:29 48.77688 17.02172 26116 ft 479 kts 128°
2026-05-06 19:29 48.75866 17.06408 26475 ft 482 kts 128°
2026-05-06 19:29 48.74028 17.10677 26837 ft 485 kts 128°
2026-05-06 19:29 48.72178 17.14967 27192 ft 488 kts 128°
2026-05-06 19:30 48.70316 17.19280 27550 ft 491 kts 128°
2026-05-06 19:30 48.68442 17.23612 27901 ft 494 kts 128°
2026-05-06 19:30 48.66552 17.27973 28232 ft 497 kts 128°
2026-05-06 19:30 48.64653 17.32349 28568 ft 499 kts 128°
2026-05-06 19:31 48.62740 17.36750 28907 ft 502 kts 128°
2026-05-06 19:31 48.60816 17.41169 29228 ft 504 kts 128°
2026-05-06 19:31 48.56941 17.50048 29960 ft 506 kts 128°
2026-05-06 19:32 48.55005 17.54476 30370 ft 505 kts 128°
2026-05-06 19:32 48.53096 17.58837 30750 ft 504 kts 128°
2026-05-06 19:32 48.51168 17.63232 31131 ft 502 kts 128°
2026-05-06 19:32 48.49240 17.67617 31491 ft 501 kts 128°
2026-05-06 19:33 48.47313 17.71992 31827 ft 500 kts 128°
2026-05-06 19:33 48.45393 17.76344 32173 ft 499 kts 128°
2026-05-06 19:33 48.43468 17.80699 32502 ft 498 kts 128°
2026-05-06 19:33 48.41521 17.85095 32774 ft 499 kts 128°
2026-05-06 19:34 48.37658 17.93792 32824 ft 504 kts 128°
2026-05-06 19:34 48.33763 18.02547 32806 ft 503 kts 128°
2026-05-06 19:35 48.29867 18.11275 33119 ft 501 kts 128°
2026-05-06 19:35 48.27938 18.15590 33553 ft 497 kts 128°
2026-05-06 19:35 48.26014 18.19884 33915 ft 495 kts 128°
2026-05-06 19:36 48.24093 18.24162 34174 ft 494 kts 128°
2026-05-06 19:36 48.22170 18.28437 34406 ft 494 kts 128°
2026-05-06 19:36 48.20245 18.32707 34636 ft 494 kts 128°
2026-05-06 19:36 48.18321 18.36969 34817 ft 495 kts 128°
2026-05-06 19:37 48.14428 18.45569 34840 ft 501 kts 128°
2026-05-06 19:37 48.11183 18.52727 34846 ft 500 kts 128°
2026-05-06 19:38 48.06616 18.62768 34855 ft 499 kts 128°
2026-05-06 19:38 48.02692 18.71364 35140 ft 499 kts 128°
2026-05-06 19:39 48.00737 18.75638 35402 ft 498 kts 128°
2026-05-06 19:39 47.98785 18.79896 35627 ft 497 kts 128°
2026-05-06 19:39 47.96832 18.84151 35825 ft 497 kts 128°
2026-05-06 19:39 47.94876 18.88403 36037 ft 496 kts 128°
2026-05-06 19:40 47.92924 18.92641 36232 ft 496 kts 128°
2026-05-06 19:40 47.90974 18.96870 36413 ft 495 kts 128°
2026-05-06 19:40 47.89023 19.01092 36608 ft 495 kts 128°
2026-05-06 19:40 47.87731 19.03886 36720 ft 494 kts 128°
2026-05-06 19:41 47.85779 19.08101 36864 ft 495 kts 128°
2026-05-06 19:41 47.83825 19.12314 36877 ft 494 kts 128°
2026-05-06 19:41 47.79918 19.20718 36879 ft 493 kts 128°
2026-05-06 19:42 47.76008 19.29102 36886 ft 493 kts 128°
2026-05-06 19:42 47.72091 19.37475 36888 ft 493 kts 128°
2026-05-06 19:43 47.68175 19.45821 36891 ft 493 kts 128°
2026-05-06 19:43 47.64252 19.54155 36896 ft 492 kts 128°
2026-05-06 19:44 47.60328 19.62467 36891 ft 492 kts 128°
2026-05-06 19:44 47.56393 19.70778 36890 ft 493 kts 128°
2026-05-06 19:45 47.52452 19.79076 36886 ft 493 kts 128°
2026-05-06 19:45 47.48502 19.87367 36891 ft 493 kts 128°
2026-05-06 19:46 47.44545 19.95648 36889 ft 493 kts 128°
2026-05-06 19:46 47.40582 20.03916 36891 ft 494 kts 128°
2026-05-06 19:47 47.36607 20.12186 36897 ft 494 kts 128°
2026-05-06 19:47 47.32621 20.20454 36898 ft 495 kts 128°
2026-05-06 19:48 47.28629 20.28707 36903 ft 495 kts 128°
2026-05-06 19:48 47.24628 20.36957 36904 ft 495 kts 129°
2026-05-06 19:49 47.20617 20.45202 36903 ft 496 kts 129°
2026-05-06 19:49 47.16600 20.53434 36900 ft 496 kts 129°
2026-05-06 19:50 47.12570 20.61669 36899 ft 496 kts 129°
2026-05-06 19:50 47.08538 20.69883 36893 ft 496 kts 129°
2026-05-06 19:51 47.04491 20.78103 36889 ft 497 kts 129°
2026-05-06 19:51 47.00442 20.86303 36889 ft 497 kts 129°
2026-05-06 19:52 46.96382 20.94500 36911 ft 497 kts 129°
2026-05-06 19:52 46.92314 21.02690 36908 ft 498 kts 129°
2026-05-06 19:53 46.88236 21.10875 36911 ft 498 kts 129°
2026-05-06 19:53 46.84150 21.19054 36904 ft 498 kts 129°
2026-05-06 19:54 46.80054 21.27226 36912 ft 499 kts 129°
2026-05-06 19:54 46.75951 21.35391 36915 ft 499 kts 129°
2026-05-06 19:55 46.71843 21.43540 36911 ft 499 kts 129°
2026-05-06 19:55 46.67978 21.51969 36924 ft 502 kts 121°
2026-05-06 19:56 46.64668 21.60938 36925 ft 503 kts 120°
2026-05-06 19:56 46.61442 21.69986 36928 ft 504 kts 119°
2026-05-06 19:57 46.58231 21.78974 36936 ft 504 kts 120°
2026-05-06 19:57 46.54977 21.88005 36944 ft 505 kts 120°
2026-05-06 19:58 46.51685 21.97089 36946 ft 505 kts 120°
2026-05-06 19:58 46.48402 22.06113 36955 ft 506 kts 120°
2026-05-06 19:59 46.45133 22.15069 36961 ft 506 kts 120°
2026-05-06 19:59 46.41830 22.24088 36967 ft 507 kts 120°
2026-05-06 20:00 46.38520 22.33097 36971 ft 507 kts 120°
2026-05-06 20:00 46.35196 22.42118 36978 ft 508 kts 120°
2026-05-06 20:01 46.31864 22.51127 36985 ft 508 kts 120°
2026-05-06 20:01 46.28517 22.60146 36986 ft 509 kts 120°
2026-05-06 20:02 46.25164 22.69152 36990 ft 509 kts 120°
2026-05-06 20:02 46.21801 22.78155 36989 ft 510 kts 120°
2026-05-06 20:03 46.18424 22.87164 36991 ft 510 kts 120°